FW5816 Weather Reports


Display with metric or nautical units.
time (UTC)temp
F
wind
direction
speed
MPH
gust
MPH
rain 1hr
in
rain 24hr
in
rain mn
in
humidity
%
barometer
mb
20260509203514 77 208 6.0 11.0 0.00 0.00 0.00 47 1008.4
20260509203031 76 261 2.0 10.0 0.00 0.00 0.00 51 1008.4
20260509202513 76 260 3.0 10.0 0.00 0.00 0.00 50 1008.4
20260509202016 76 146 4.0 9.0 0.00 0.00 0.00 50 1008.6
20260509201529 76 271 2.0 8.0 0.00 0.00 0.00 52 1008.7
20260509201010 76 178 3.0 12.0 0.00 0.00 0.00 50 1008.7
20260509200516 76 174 3.0 12.0 0.00 0.00 0.00 52 1008.7
20260509200032 75 282 4.0 10.0 0.00 0.00 0.00 53 1008.7
20260509195512 75 275 3.0 10.0 0.00 0.00 0.00 49 1008.8
20260509195010 75 256 6.0 10.0 0.00 0.00 0.00 49 1008.9
20260509194534 76 197 5.0 10.0 0.00 0.00 0.00 53 1008.9
20260509194016 76 178 3.0 9.0 0.00 0.00 0.00 52 1008.9
20260509193512 75 146 2.0 12.0 0.00 0.00 0.00 53 1008.9
20260509193034 75 234 5.0 12.0 0.00 0.00 0.00 53 1009.0
20260509192514 75 15 2.0 8.0 0.00 0.00 0.00 54 1009.0
20260509192013 75 281 2.0 9.0 0.00 0.00 0.00 52 1009.1
20260509191547 74 7 3.0 9.0 0.00 0.00 0.00 53 1009.1
20260509191011 74 250 4.0 11.0 0.00 0.00 0.00 55 1009.1
20260509190514 74 153 3.0 11.0 0.00 0.00 0.00 56 1009.1
20260509190033 74 248 4.0 11.0 0.00 0.00 0.00 56 1009.2
20260509185511 74 210 3.0 11.0 0.00 0.00 0.00 54 1009.2
20260509185013 73 135 5.0 11.0 0.00 0.00 0.00 57 1009.2
20260509184544 73 273 2.0 11.0 0.00 0.00 0.00 56 1009.3
20260509184015 73 307 4.0 11.0 0.00 0.00 0.00 57 1009.4
20260509183512 73 271 7.0 11.0 0.00 0.00 0.00 55 1009.4
20260509183043 73 247 2.0 12.0 0.00 0.00 0.00 58 1009.3
20260509182514 73 258 6.0 12.0 0.00 0.00 0.00 58 1009.3
20260509182011 72 132 4.0 11.0 0.00 0.00 0.00 57 1009.3
20260509181532 72 133 4.0 11.0 0.00 0.00 0.00 57 1009.2
20260509181014 72 302 3.0 9.0 0.00 0.00 0.00 59 1009.4
20260509180512 72 299 2.0 10.0 0.00 0.00 0.00 57 1009.5
20260509180031 72 282 5.0 10.0 0.00 0.00 0.00 57 1009.4
20260509175518 72 279 3.0 8.0 0.00 0.00 0.00 57 1009.4
20260509175018 72 255 4.0 10.0 0.00 0.00 0.00 59 1009.3
20260509174532 71 23 3.0 13.0 0.00 0.00 0.00 61 1009.4
20260509174011 71 277 4.0 13.0 0.00 0.00 0.00 60 1009.5
20260509173517 71 296 5.0 13.0 0.00 0.00 0.00 61 1009.6
20260509173031 70 248 6.0 10.0 0.00 0.00 0.00 62 1009.4
20260509172513 70 316 4.0 10.0 0.00 0.00 0.00 61 1009.5
20260509172011 70 277 5.0 10.0 0.00 0.00 0.00 61 1009.5
20260509171531 69 274 4.0 10.0 0.00 0.00 0.00 62 1009.4
20260509171013 69 64 3.0 8.0 0.00 0.00 0.00 61 1009.5
20260509170513 69 293 2.0 9.0 0.00 0.00 0.00 62 1009.4
20260509170030 70 195 4.0 12.0 0.00 0.00 0.00 61 1009.5
20260509165511 70 297 5.0 12.0 0.00 0.00 0.00 63 1009.7
20260509165011 70 184 4.0 11.0 0.00 0.00 0.00 62 1009.6
20260509164531 69 290 2.0 13.0 0.00 0.00 0.00 62 1009.6
20260509164011 69 320 2.0 13.0 0.00 0.00 0.00 61 1009.6
20260509163513 68 264 8.0 13.0 0.00 0.00 0.00 61 1009.5
20260509163039 69 233 4.0 10.0 0.00 0.00 0.00 62 1009.4
20260509162513 69 359 5.0 10.0 0.00 0.00 0.00 64 1009.3
20260509162016 69 266 5.0 9.0 0.00 0.00 0.00 62 1009.3
20260509161530 68 274 2.0 8.0 0.00 0.00 0.00 64 1009.4
20260509161013 68 355 2.0 10.0 0.00 0.00 0.00 65 1009.5
20260509160514 68 230 3.0 10.0 0.00 0.00 0.00 63 1009.6
20260509160030 68 258 3.0 10.0 0.00 0.00 0.00 63 1009.5
20260509155513 68 267 3.0 7.0 0.00 0.00 0.00 65 1009.4
20260509155014 67 256 2.0 11.0 0.00 0.00 0.00 65 1009.3
20260509154529 67 160 5.0 11.0 0.00 0.00 0.00 66 1009.3
20260509154014 67 292 2.0 11.0 0.00 0.00 0.00 67 1009.3
20260509153512 67 296 4.0 11.0 0.00 0.00 0.00 67 1009.3
20260509153043 66 250 5.0 11.0 0.00 0.00 0.00 67 1009.4
20260509152523 66 0 2.0 9.0 0.00 0.00 0.00 68 1009.4
20260509152013 66 243 3.0 8.0 0.00 0.00 0.00 68 1009.3
20260509151534 65 150 3.0 9.0 0.00 0.00 0.00 68 1009.3
20260509151012 65 283 5.0 9.0 0.00 0.00 0.00 67 1009.2
20260509150515 65 258 4.0 7.0 0.00 0.00 0.00 67 1009.1
20260509150032 65 288 3.0 6.0 0.00 0.00 0.00 68 1009.1
20260509145513 64 323 2.0 6.0 0.00 0.00 0.00 70 1009.2
20260509145014 64 309 3.0 6.0 0.00 0.00 0.00 69 1009.2
20260509144533 64 235 1.0 9.0 0.00 0.00 0.00 71 1009.2
20260509144015 64 226 1.0 9.0 0.00 0.00 0.00 70 1009.2
20260509143511 64 305 2.0 7.0 0.00 0.00 0.00 71 1009.1
20260509143030 64 200 2.0 9.0 0.00 0.00 0.00 71 1009.1
20260509142516 63 142 3.0 9.0 0.00 0.00 0.00 71 1009.0
20260509142012 62 256 5.0 9.0 0.00 0.00 0.00 72 1009.1
20260509141531 62 124 4.0 9.0 0.00 0.00 0.00 73 1009.0
20260509141012 62 241 4.0 9.0 0.00 0.00 0.00 72 1009.1
20260509140511 62 233 4.0 9.0 0.00 0.00 0.00 73 1009.1
20260509140029 62 138 1.0 6.0 0.00 0.00 0.00 75 1009.0
20260509135512 62 155 2.0 6.0 0.00 0.00 0.00 74 1009.0
20260509135014 62 126 2.0 6.0 0.00 0.00 0.00 76 1008.9
20260509134531 61 143 2.0 5.0 0.00 0.00 0.00 77 1008.9
20260509134011 61 153 1.0 4.0 0.00 0.00 0.00 77 1009.1
20260509133512 60 133 2.0 4.0 0.00 0.00 0.00 79 1009.0
20260509133030 59 73 1.0 5.0 0.00 0.00 0.00 81 1008.9
20260509132515 58 140 1.0 5.0 0.00 0.00 0.00 83 1008.9
20260509132017 58 141 1.0 5.0 0.00 0.00 0.00 84 1009.0
20260509131533 57 118 1.0 5.0 0.00 0.00 0.00 84 1008.9
20260509131010 57 139 1.0 5.0 0.00 0.00 0.00 84 1008.9
20260509130514 57 136 0.0 5.0 0.00 0.00 0.00 85 1008.9
20260509130038 57 110 1.0 5.0 0.00 0.00 0.00 85 1008.7
20260509125512 57 81 2.0 5.0 0.00 0.00 0.00 85 1008.6
20260509125014 56 60 2.0 5.0 0.00 0.00 0.00 86 1008.6
20260509124538 56 76 2.0 4.0 0.00 0.00 0.00 86 1008.6
20260509124013 56 130 1.0 4.0 0.00 0.00 0.00 86 1008.7
20260509123513 56 57 1.0 4.0 0.00 0.00 0.00 86 1008.8
20260509123034 56 72 1.0 4.0 0.00 0.00 0.00 86 1008.8
20260509122514 56 57 1.0 7.0 0.00 0.00 0.00 86 1008.8
20260509122013 56 51 2.0 7.0 0.00 0.00 0.00 86 1008.8
20260509121534 56 63 2.0 6.0 0.00 0.00 0.00 87 1008.6
20260509121014 56 116 2.0 6.0 0.00 0.00 0.00 87 1008.6
20260509120513 56 101 2.0 7.0 0.00 0.00 0.00 87 1008.6
20260509120032 56 86 3.0 7.0 0.00 0.00 0.00 87 1008.4
20260509115510 56 92 1.0 5.0 0.00 0.00 0.00 87 1008.5
20260509115014 56 0 1.0 4.0 0.00 0.00 0.00 88 1008.3
20260509114532 55 58 2.0 6.0 0.00 0.00 0.00 88 1008.3
20260509114013 55 84 1.0 6.0 0.00 0.00 0.00 88 1008.2
20260509113514 55 60 2.0 6.0 0.00 0.00 0.00 88 1008.0
20260509113036 55 87 2.0 6.0 0.00 0.00 0.00 88 1008.1
20260509112512 55 73 3.0 6.0 0.00 0.00 0.00 87 1008.0
20260509112011 55 57 2.0 7.0 0.00 0.00 0.00 88 1008.2
20260509111531 55 57 3.0 7.0 0.00 0.00 0.00 88 1008.0
20260509111014 55 58 3.0 6.0 0.00 0.00 0.00 87 1007.9
20260509110514 55 61 3.0 7.0 0.00 0.00 0.00 87 1008.0
20260509110031 55 67 3.0 7.0 0.00 0.00 0.00 87 1007.9
20260509105513 55 60 2.0 6.0 0.00 0.00 0.00 87 1007.9
20260509105014 55 67 1.0 6.0 0.00 0.00 0.00 87 1008.0
20260509104530 55 60 3.0 6.0 0.00 0.00 0.00 87 1008.0
20260509104012 55 72 3.0 5.0 0.00 0.00 0.00 87 1007.9
20260509103512 55 57 2.0 7.0 0.00 0.00 0.00 87 1008.0
20260509103030 55 72 2.0 7.0 0.00 0.00 0.00 87 1007.9
20260509102513 56 84 3.0 6.0 0.00 0.00 0.00 87 1007.8
20260509102017 56 55 2.0 6.0 0.00 0.00 0.00 87 1008.0
20260509101547 56 71 2.0 6.0 0.00 0.00 0.00 87 1008.0
20260509101012 56 73 1.0 8.0 0.00 0.00 0.00 87 1008.1
20260509100513 56 67 3.0 8.0 0.00 0.00 0.00 87 1008.2
20260509100032 56 64 4.0 8.0 0.00 0.00 0.00 86 1008.0
20260509095514 56 37 3.0 8.0 0.00 0.00 0.00 86 1007.9
20260509095011 56 33 3.0 8.0 0.00 0.00 0.00 86 1008.0
20260509094531 56 67 2.0 9.0 0.00 0.00 0.00 86 1008.1
20260509094010 56 103 4.0 11.0 0.00 0.00 0.00 86 1007.9
20260509093514 56 48 5.0 11.0 0.00 0.00 0.00 86 1007.9
20260509093032 56 30 4.0 9.0 0.00 0.00 0.00 86 1008.0
20260509092511 56 70 3.0 9.0 0.00 0.00 0.00 85 1008.2
20260509092012 56 36 4.0 8.0 0.00 0.00 0.00 85 1008.2
20260509091530 56 96 3.0 6.0 0.00 0.00 0.00 84 1008.5
20260509091012 56 50 3.0 6.0 0.00 0.00 0.00 84 1008.5
20260509090515 56 51 3.0 6.0 0.00 0.00 0.00 83 1008.5
20260509090037 56 34 2.0 6.0 0.00 0.00 0.00 83 1008.7
20260509085512 56 27 1.0 4.0 0.00 0.00 0.00 82 1008.6
20260509085014 56 31 2.0 5.0 0.00 0.00 0.00 82 1008.5
20260509084532 56 37 2.0 6.0 0.00 0.00 0.00 81 1008.5
20260509084011 56 66 2.0 6.0 0.00 0.00 0.00 81 1008.3
20260509083511 56 53 3.0 7.0 0.00 0.00 0.00 81 1008.3
20260509083046 56 68 3.0 7.0 0.00 0.00 0.00 80 1008.3
20260509082516 57 66 4.0 6.0 0.00 0.00 0.00 79 1008.2
20260509082014 57 71 2.0 5.0 0.00 0.00 0.00 78 1008.3
20260509081532 57 88 0.0 6.0 0.00 0.00 0.00 76 1008.4
20260509081011 57 0 1.0 6.0 0.00 0.00 0.00 75 1008.5
20260509080513 57 25 3.0 8.0 0.00 0.00 0.00 74 1008.3
20260509080034 57 209 0.0 8.0 0.00 0.00 0.00 75 1008.3
20260509075510 57 46 5.0 8.0 0.00 0.00 0.00 74 1008.3
20260509075011 58 330 3.0 5.0 0.00 0.00 0.00 74 1008.4
20260509074530 58 0 0.0 0.0 0.00 0.00 0.00 73 1008.5
20260509074016 58 0 0.0 0.0 0.00 0.00 0.00 72 1008.4
20260509073513 58 0 0.0 1.0 0.00 0.00 0.00 71 1008.4
20260509073035 59 0 0.0 1.0 0.00 0.00 0.00 70 1008.2
20260509072510 59 0 0.0 1.0 0.00 0.00 0.00 69 1008.3
20260509072015 59 0 0.0 1.0 0.00 0.00 0.00 66 1008.2
20260509071537 59 0 0.0 1.0 0.00 0.00 0.00 67 1008.3
20260509071012 59 141 0.0 1.0 0.00 0.00 0.00 66 1008.3
20260509070512 59 141 0.0 1.0 0.00 0.00 0.00 66 1008.3
20260509070033 59 0 0.0 1.0 0.00 0.00 0.00 66 1008.5
20260509065511 59 141 0.0 1.0 0.00 0.00 0.00 68 1008.7
20260509065012 59 141 0.0 2.0 0.00 0.00 0.00 68 1008.8
20260509064532 59 0 0.0 2.0 0.00 0.00 0.00 68 1009.1
20260509064010 59 141 1.0 2.0 0.00 0.00 0.00 68 1009.2
20260509063516 59 141 0.0 1.0 0.00 0.00 0.00 68 1009.1
20260509063032 60 146 0.0 0.0 0.00 0.00 0.00 67 1009.0
20260509062514 60 0 0.0 0.0 0.00 0.00 0.00 67 1008.9
20260509062014 60 0 0.0 0.0 0.00 0.00 0.00 65 1009.0
20260509061532 60 146 0.0 0.0 0.00 0.00 0.00 65 1009.0
20260509061015 60 0 0.0 0.0 0.00 0.00 0.00 66 1009.0
20260509060510 60 146 0.0 0.0 0.00 0.00 0.00 63 1009.1
20260509060032 60 0 0.0 1.0 0.00 0.00 0.00 62 1009.1
20260509055511 60 146 0.0 1.0 0.00 0.00 0.00 62 1009.1
20260509055013 60 0 0.0 0.0 0.00 0.00 0.00 62 1009.0
20260509054533 61 0 0.0 0.0 0.00 0.00 0.00 62 1009.1
20260509054012 61 0 0.0 0.0 0.00 0.00 0.00 62 1009.0
20260509053511 61 0 0.0 0.0 0.00 0.00 0.00 62 1009.0
20260509053046 61 0 0.0 1.0 0.00 0.00 0.00 61 1009.0
20260509052511 61 0 0.0 1.0 0.00 0.00 0.00 61 1009.0
20260509052012 61 203 0.0 3.0 0.00 0.00 0.00 60 1009.0
20260509051535 61 137 0.0 3.0 0.00 0.00 0.00 60 1009.0
20260509051011 61 163 0.0 3.0 0.00 0.00 0.00 60 1008.9
20260509050511 61 163 0.0 3.0 0.00 0.00 0.00 60 1008.9
20260509050030 61 146 0.0 4.0 0.00 0.00 0.00 60 1008.8
20260509045519 61 187 1.0 4.0 0.00 0.00 0.00 60 1008.9
20260509045012 61 150 1.0 4.0 0.00 0.00 0.00 60 1008.9
20260509044530 62 138 1.0 3.0 0.00 0.00 0.00 59 1008.8
20260509044011 62 132 1.0 3.0 0.00 0.00 0.00 59 1008.9
20260509043513 62 131 1.0 3.0 0.00 0.00 0.00 59 1008.9
20260509043032 62 154 1.0 3.0 0.00 0.00 0.00 59 1009.0
20260509042512 62 205 1.0 5.0 0.00 0.00 0.00 59 1008.9
20260509042018 62 169 1.0 5.0 0.00 0.00 0.00 59 1009.1
20260509041533 62 150 2.0 5.0 0.00 0.00 0.00 59 1008.9
20260509041015 62 153 1.0 4.0 0.00 0.00 0.00 58 1008.9
20260509040514 62 142 1.0 4.0 0.00 0.00 0.00 59 1008.9
20260509040032 62 147 1.0 4.0 0.00 0.00 0.00 58 1008.9
20260509035511 62 182 1.0 4.0 0.00 0.00 0.00 58 1008.9
20260509035012 62 150 0.0 2.0 0.00 0.00 0.00 58 1009.0
20260509034537 62 0 0.0 2.0 0.00 0.00 0.00 58 1009.1
20260509034013 62 0 0.0 2.0 0.00 0.00 0.00 57 1009.2
20260509033512 62 174 0.0 3.0 0.00 0.00 0.00 57 1009.3
20260509033030 62 145 1.0 3.0 0.00 0.00 0.00 57 1009.3
20260509032513 63 169 1.0 4.0 0.00 0.00 0.00 57 1009.4
20260509032009 63 201 1.0 4.0 0.00 0.00 0.00 57 1009.3
20260509031549 63 155 1.0 4.0 0.00 0.00 0.00 57 1009.3
20260509031012 63 239 1.0 2.0 0.00 0.00 0.00 56 1009.5
20260509030515 63 0 0.0 3.0 0.00 0.00 0.00 56 1009.5
20260509030054 63 136 0.0 5.0 0.00 0.00 0.00 56 1009.5
20260509025512 63 205 1.0 5.0 0.00 0.00 0.00 56 1009.4
20260509025010 63 141 1.0 5.0 0.00 0.00 0.00 56 1009.3
20260509024538 64 144 2.0 5.0 0.00 0.00 0.00 55 1009.4
20260509024014 64 169 1.0 5.0 0.00 0.00 0.00 55 1009.6
20260509023511 64 144 1.0 4.0 0.00 0.00 0.00 55 1009.8
20260509023036 64 131 1.0 4.0 0.00 0.00 0.00 54 1009.9
20260509022510 64 143 1.0 3.0 0.00 0.00 0.00 54 1010.0
20260509022013 64 121 0.0 2.0 0.00 0.00 0.00 53 1010.0
20260509021538 64 120 0.0 2.0 0.00 0.00 0.00 53 1010.0
20260509021010 64 145 0.0 2.0 0.00 0.00 0.00 53 1010.0
20260509020512 65 166 1.0 2.0 0.00 0.00 0.00 52 1009.8
20260509020032 65 147 1.0 3.0 0.00 0.00 0.00 52 1009.8
20260509015511 65 169 1.0 4.0 0.00 0.00 0.00 52 1009.8
20260509015012 65 207 1.0 4.0 0.00 0.00 0.00 52 1009.8
20260509014529 65 188 1.0 5.0 0.00 0.00 0.00 51 1009.8
20260509014015 65 160 1.0 7.0 0.00 0.00 0.00 51 1009.7
20260509013513 65 205 2.0 7.0 0.00 0.00 0.00 51 1009.7
20260509013030 65 245 1.0 4.0 0.00 0.00 0.00 51 1009.7
20260509012512 65 164 1.0 4.0 0.00 0.00 0.00 51 1009.8
20260509012019 65 184 1.0 4.0 0.00 0.00 0.00 51 1009.8
20260509011530 65 160 2.0 4.0 0.00 0.00 0.00 50 1009.6
20260509011011 65 181 1.0 3.0 0.00 0.00 0.00 50 1009.6
20260509010515 65 159 1.0 3.0 0.00 0.00 0.00 50 1009.6
20260509010032 66 201 1.0 6.0 0.00 0.00 0.00 50 1009.8
20260509005510 66 217 1.0 6.0 0.00 0.00 0.00 49 1009.7
20260509005014 66 236 2.0 6.0 0.00 0.00 0.00 49 1009.6
20260509004546 66 168 1.0 7.0 0.00 0.00 0.00 49 1009.7
20260509004013 67 288 3.0 8.0 0.00 0.00 0.00 47 1009.6
20260509003515 67 170 3.0 8.0 0.00 0.00 0.00 47 1009.7
20260509003036 67 200 3.0 10.0 0.00 0.00 0.00 47 1009.6
20260509002511 67 272 3.0 10.0 0.00 0.00 0.00 46 1009.6
20260509002012 68 264 4.0 12.0 0.00 0.00 0.00 46 1009.6
20260509001532 68 176 5.0 14.0 0.00 0.00 0.00 46 1009.5
20260509001011 68 183 6.0 14.0 0.00 0.00 0.00 45 1009.5
20260509000512 69 282 4.0 14.0 0.00 0.00 0.00 46 1009.8
20260509000030 69 248 6.0 13.0 0.00 0.00 0.00 45 1009.5
20260508235512 69 139 4.0 13.0 0.00 0.00 0.00 46 1009.7
20260508235013 69 179 5.0 13.0 0.00 0.00 0.00 45 1009.6
20260508234529 69 261 7.0 16.0 0.00 0.00 0.00 45 1009.8
20260508234011 69 196 4.0 16.0 0.00 0.00 0.00 46 1009.7
20260508233515 69 160 7.0 16.0 0.00 0.00 0.00 45 1009.8
20260508233032 70 174 4.0 17.0 0.00 0.00 0.00 46 1009.8
20260508232510 69 259 5.0 17.0 0.00 0.00 0.00 46 1009.8
20260508232014 69 184 6.0 17.0 0.00 0.00 0.00 45 1009.8
20260508231530 70 245 6.0 13.0 0.00 0.00 0.00 46 1009.8
20260508231011 70 233 7.0 13.0 0.00 0.00 0.00 45 1009.9
20260508230511 70 273 4.0 17.0 0.00 0.00 0.00 45 1009.8
20260508230030 70 214 7.0 17.0 0.00 0.00 0.00 44 1009.7
20260508225510 70 243 7.0 17.0 0.00 0.00 0.00 44 1010.0
20260508225012 71 5 6.0 15.0 0.00 0.00 0.00 44 1010.0
20260508224536 71 144 5.0 13.0 0.00 0.00 0.00 43 1010.2
20260508224010 71 195 5.0 11.0 0.00 0.00 0.00 43 1010.0
20260508223511 72 207 6.0 11.0 0.00 0.00 0.00 43 1010.1
20260508223045 72 268 6.0 13.0 0.00 0.00 0.00 42 1009.8
20260508222510 72 169 7.0 14.0 0.00 0.00 0.00 42 1009.8
20260508222017 72 204 6.0 15.0 0.00 0.00 0.00 42 1009.7
20260508221532 72 160 6.0 15.0 0.00 0.00 0.00 42 1009.7
20260508221010 72 303 7.0 18.0 0.00 0.00 0.00 41 1009.7
20260508220515 72 214 7.0 18.0 0.00 0.00 0.00 41 1009.5
20260508220029 72 171 6.0 15.0 0.00 0.00 0.00 41 1009.6
20260508215516 72 153 7.0 15.0 0.00 0.00 0.00 40 1009.6
20260508215011 73 153 6.0 15.0 0.00 0.00 0.00 39 1009.5
20260508214531 73 141 4.0 13.0 0.00 0.00 0.00 41 1009.6
20260508214011 73 221 6.0 15.0 0.00 0.00 0.00 41 1009.7
20260508213511 72 149 6.0 15.0 0.00 0.00 0.00 42 1009.7
20260508213029 73 252 6.0 15.0 0.00 0.00 0.00 42 1009.6
20260508212511 72 191 6.0 12.0 0.00 0.00 0.00 42 1009.9
20260508212014 72 148 6.0 13.0 0.00 0.00 0.00 42 1009.9
20260508211533 72 154 4.0 17.0 0.00 0.00 0.00 41 1010.0
20260508211010 72 259 9.0 17.0 0.00 0.00 0.00 42 1010.1
20260508210513 72 168 10.0 15.0 0.00 0.00 0.00 41 1010.2
20260508210030 72 253 10.0 15.0 0.00 0.00 0.00 40 1010.2
20260508205509 72 135 9.0 15.0 0.00 0.00 0.00 40 1010.2
20260508205012 72 195 8.0 15.0 0.00 0.00 0.00 42 1010.3
20260508204534 72 287 7.0 16.0 0.00 0.00 0.00 42 1010.2
20260508204010 72 290 8.0 16.0 0.00 0.00 0.00 40 1010.3